Location: ??????????
(54.4061°N, 22.6114°E)
Time: 16:37:13
(UTC+00:00)

STARLINK-69 - Pass Details

Date: 23 October 2019
Orbit: 548 x 551 km, 53.0° (Epoch: 17 November)

Event Time Altitude Azimuth Distance (km) Brightness Sun altitude
Rises 16:56:12 0° 275° (W) 2,720 9.1 -15.4°
Reaches altitude 10° 16:58:26 10° 273° (W) 1,826 7.7 -15.8°
Maximum altitude 17:02:33 66° 191° (S) 602 3.8 -16.4°
Enters shadow 17:04:22 31° 118° (ESE) 968 4.4 -16.6°
